Weather History for Topeka, KS

Change the Weather History Date:

Thursday, September 19, 2013

  Actual Average Record
Temperature  
Mean Temperature 81 °F 67 °F  
Max Temperature 94 °F 79 °F 97 °F (1954)
Min Temperature 67 °F 55 °F 35 °F (1991)
Degree Days  
Heating Degree Days 0 3  
Month to date heating degree days 3 21  
Since 1 July heating degree days 3 23  
Cooling Degree Days 16 4  
Month to date cooling degree days 225 129  
Year to date cooling degree days 1519 1357  
Growing Degree Days 31 (Base 50)    
Moisture  
Dew Point 67 °F    
Average Humidity 65    
Maximum Humidity 90    
Minimum Humidity 39    
Precipitation  
Precipitation 0.54 in 0.12 in 2.54 in (1993)
Month to date precipitation 3.09 2.32  
Year to date precipitation 27.56 28.89  
Snow  
Snow 0.00 in 0.00 in T in (1901)
Month to date snowfall 0.0 0.0  
Year to date snowfall 24.2 11.3  
Since 1 July snowfall 0.0 0.0  
Snow Depth 0.00 in    
Sea Level Pressure  
Sea Level Pressure 29.85 in    
Wind  
Wind Speed 11 mph (WSW)    
Max Wind Speed 26 mph    
Max Gust Speed 35 mph    
Visibility 8 miles    
Events Fog , Rain , Thunderstorm    
T = Trace of Precipitation, MM = Missing Value Source: NWS Daily Summary

Daily Weather History Graph

Daily Weather History Graph

Search for Another Location

Airport:

Trip Planner

Search our weather history database for the weather conditions in past years. The results will help you decide how hot, cold, wet, or windy it might be!

Date:

Astronomy

Sep. 19, 2013 Rise Set
Actual Time 7:07 AM CDT 7:23 PM CDT
Civil Twilight 6:40 AM CDT 7:50 PM CDT
Nautical Twilight 6:09 AM CDT 8:21 PM CDT
Astronomical Twilight 5:37 AM CDT 8:53 PM CDT
Moon 7:23 PM CDT (9/19) 7:17 AM CDT (9/19)
Length of Visible Light 13h 09m
Length of Day
12h 16m
Full, 100% of the Moon is Illuminated
Sep 19
Full
Sep 26
Last Quarter
Oct 4
New
Oct 11
First Quarter
Oct 18
Full

Hourly Weather History & Observations

Time (CDT) Temp. Heat Index Dew Point Humidity Pressure Visibility Wind Dir Wind Speed Gust Speed Precip Events Conditions
12:53 AM 80.1 °F 82.3 °F 66.9 °F 64% 29.81 in 10.0 mi South 11.5 mph - N/A   Clear
1:53 AM 79.0 °F - 66.9 °F 66% 29.82 in 10.0 mi South 10.4 mph - N/A   Clear
2:53 AM 78.1 °F - 66.9 °F 68% 29.81 in 10.0 mi South 10.4 mph - N/A   Clear
3:53 AM 77.0 °F - 66.0 °F 69% 29.81 in 10.0 mi South 11.5 mph - N/A   Clear
4:53 AM 75.9 °F - 64.9 °F 69% 29.82 in 10.0 mi South 8.1 mph - N/A   Clear
5:53 AM 75.0 °F - 64.9 °F 71% 29.81 in 10.0 mi South 11.5 mph - N/A   Clear
6:53 AM 75.0 °F - 66.0 °F 73% 29.81 in 10.0 mi South 10.4 mph - N/A   Clear
7:53 AM 75.9 °F - 66.0 °F 71% 29.81 in 10.0 mi South 11.5 mph - N/A   Clear
8:53 AM 78.1 °F - 66.0 °F 66% 29.82 in 10.0 mi SSW 13.8 mph 20.7 mph N/A   Clear
9:53 AM 82.0 °F 84.1 °F 66.0 °F 58% 29.83 in 10.0 mi SSW 11.5 mph - N/A   Clear
10:53 AM 84.9 °F 87.1 °F 66.0 °F 53% 29.83 in 10.0 mi SSW 11.5 mph - N/A   Clear
11:53 AM 89.1 °F 91.3 °F 66.0 °F 46% 29.82 in 10.0 mi SSW 16.1 mph 27.6 mph N/A   Mostly Cloudy
12:53 PM 91.0 °F 94.3 °F 66.9 °F 45% 29.81 in 10.0 mi SSW 17.3 mph 27.6 mph N/A   Clear
1:53 PM 91.9 °F 94.5 °F 66.0 °F 42% 29.78 in 10.0 mi SSW 17.3 mph 28.8 mph N/A   Clear
2:53 PM 93.0 °F 95.0 °F 64.9 °F 39% 29.74 in 10.0 mi SSW 26.5 mph 35.7 mph N/A   Scattered Clouds
3:53 PM 93.0 °F 95.0 °F 64.9 °F 39% 29.70 in 10.0 mi SSW 15.0 mph 27.6 mph N/A   Partly Cloudy
4:53 PM 90.0 °F 92.4 °F 66.0 °F 45% 29.71 in 10.0 mi SSW 18.4 mph 29.9 mph N/A   Scattered Clouds
5:21 PM 82.9 °F 85.0 °F 66.0 °F 56% 29.77 in 10.0 mi NW 15.0 mph 29.9 mph N/A Thunderstorm Mostly Cloudy
5:25 PM 79.0 °F - 66.9 °F 66% 29.77 in 10.0 mi North 11.5 mph 29.9 mph N/A Thunderstorm Thunderstorm
5:35 PM 77.0 °F - 68.0 °F 74% 29.83 in 1.8 mi West 11.5 mph 23.0 mph 0.04 in Rain , Thunderstorm Heavy Thunderstorms and Rain
5:41 PM 73.0 °F - 69.1 °F 87% 29.83 in 0.5 mi NW 9.2 mph 25.3 mph 0.34 in Fog , Rain , Thunderstorm Heavy Thunderstorms and Rain
5:45 PM 72.0 °F - 69.1 °F 91% 29.83 in 0.8 mi WNW 4.6 mph 25.3 mph 0.48 in Rain , Thunderstorm Heavy Thunderstorms and Rain
5:50 PM 73.4 °F - 69.8 °F 88% 29.83 in 2.0 mi West 6.9 mph - 0.49 in Rain , Thunderstorm Light Thunderstorms and Rain
5:53 PM 73.9 °F - 69.1 °F 85% 29.80 in 6.0 mi West 5.8 mph - 0.49 in Rain , Thunderstorm Light Thunderstorms and Rain
6:01 PM 73.9 °F - 69.1 °F 85% 29.82 in 10.0 mi WNW 8.1 mph - 0.00 in Rain , Thunderstorm Light Thunderstorms and Rain
6:14 PM 73.0 °F - 69.1 °F 87% 29.81 in 5.0 mi NW 13.8 mph - 0.00 in Rain , Thunderstorm Rain
6:24 PM 73.0 °F - 68.0 °F 84% 29.82 in 9.0 mi NNW 9.2 mph - 0.02 in Rain , Thunderstorm Light Thunderstorms and Rain
6:44 PM 71.1 °F - 66.0 °F 84% 29.83 in 10.0 mi North 8.1 mph - 0.03 in Rain Light Rain
6:53 PM 71.1 °F - 66.0 °F 84% 29.83 in 10.0 mi North 5.8 mph - 0.03 in Rain Light Rain
7:07 PM 71.1 °F - 66.0 °F 84% 29.88 in 10.0 mi NE 6.9 mph - 0.00 in Rain , Thunderstorm Light Rain
7:17 PM 71.1 °F - 66.0 °F 84% 29.90 in 10.0 mi ENE 5.8 mph - 0.00 in Thunderstorm Overcast
7:27 PM 71.1 °F - 64.9 °F 81% 29.90 in 10.0 mi NE 4.6 mph - 0.00 in   Overcast
7:53 PM 70.0 °F - 66.0 °F 87% 29.90 in 10.0 mi NNE 3.5 mph - 0.00 in Thunderstorm Thunderstorm
8:11 PM 71.1 °F - 66.0 °F 84% 29.93 in 10.0 mi SSE 6.9 mph - N/A   Overcast
8:41 PM 70.0 °F - 66.0 °F 87% 29.94 in 2.5 mi North 4.6 mph - 0.01 in Rain Light Rain
8:48 PM 69.8 °F - 66.2 °F 88% 29.95 in 3.0 mi Calm Calm - 0.02 in Rain Light Rain
8:51 PM 69.8 °F - 66.2 °F 88% 29.95 in 3.0 mi Calm Calm - 0.02 in Rain Light Rain
8:53 PM 70.0 °F - 66.0 °F 87% 29.93 in 3.0 mi Calm Calm - 0.02 in Rain Light Rain
9:03 PM 69.1 °F - 66.9 °F 93% 29.96 in 5.0 mi Calm Calm - 0.00 in Rain Light Rain
9:31 PM 70.0 °F - 66.9 °F 90% 29.95 in 10.0 mi Calm Calm - 0.00 in   Mostly Cloudy
9:49 PM 69.8 °F - 66.2 °F 88% 29.96 in 10.0 mi Calm Calm - 0.00 in   Mostly Cloudy
9:53 PM 70.0 °F - 66.9 °F 90% 29.94 in 10.0 mi Calm Calm - 0.00 in   Overcast
10:50 PM 69.8 °F - 66.2 °F 88% 29.96 in 10.0 mi WNW 4.6 mph - N/A   Overcast
10:53 PM 70.0 °F - 66.9 °F 90% 29.94 in 10.0 mi WNW 5.8 mph - N/A   Overcast
11:53 PM 68.0 °F - 64.0 °F 87% 29.94 in 10.0 mi WNW 8.1 mph - N/A   Mostly Cloudy